This demonstration page uses our WeatherBlox Daily Observations layout. Learn more.

39.51506, -84.39828

Hourly Observations for November 28, 2018

Temp ( °F °C ) Dew Point ( °F °C ) Humidity (%) Winds ( mph kmh ) Pressure ( in mb ) Visibility ( mi km ) Precip ( " mm )
12:15 am 00:15 Cloudy 23 -5.2 16 -8.8 76 76 WSW 12 19 30.03 1017 10 16.0934 0 0
12:35 am 00:35 Cloudy 22 -5.4 16 -8.7 78 78 WSW 9 15 30.06 1018 10 16.0934 0 0
12:55 am 00:55 Mostly Cloudy 22 -5.6 16 -8.8 78 78 W 12 19 30.06 1018 10 16.0934 0 0
1:15 am 01:15 Mostly Cloudy with Scattered Snow Showers 22 -5.3 17 -8.5 78 78 W 12 19 30.06 1018 10 16.0934 0 0
1:35 am 01:35 Cloudy with Light Snow 23 -5 17 -8.1 79 79 WSW 8 13 30.06 1018 10 16.0934 0 0
1:55 am 01:55 Cloudy with Light Snow 23 -5 18 -8 80 80 WSW 8 13 30.06 1018 10 16.0934 0 0
2:15 am 02:15 Cloudy with Light Snow 23 -5 16 -9.1 73 73 W 15 24 30.06 1018 10 16.0934 0 0
2:35 am 02:35 Cloudy 23 -5.2 14 -9.8 70 70 WNW 12 19 30.06 1018 10 16.0934 0 0
2:55 am 02:55 Cloudy 22 -5.5 14 -9.8 72 72 W 10 17 30.09 1019 10 16.0934 0 0
3:15 am 03:15 Cloudy 22 -5.6 15 -9.7 73 73 W 9 15 30.09 1019 10 16.0934 0 0
3:35 am 03:35 Mostly Cloudy 21 -5.9 14 -9.8 74 74 W 7 11 30.09 1019 10 16.0934 0 0
3:55 am 03:55 Mostly Cloudy with Scattered Snow Showers 22 -5.8 15 -9.3 77 77 W 8 13 30.09 1019 10 16.0934 0 0
4:15 am 04:15 Cloudy with Light Snow 22 -5.4 16 -8.7 78 78 WSW 12 19 30.09 1019 10 16.0934 0 0
4:35 am 04:35 Cloudy with Light Snow 22 -5.6 15 -9.2 76 76 W 13 20 30.09 1019 10 16.0934 0 0
4:55 am 04:55 Cloudy with Light Snow 22 -5.7 16 -8.8 79 79 W 9 15 30.09 1019 7 11.26538 0 0
5:15 am 05:15 Cloudy with Light Snow 22 -5.7 16 -8.9 78 78 W 7 11 30.09 1019 10 16.0934 0 0
5:35 am 05:35 Cloudy with Light Snow 22 -5.7 16 -8.9 78 78 WSW 8 13 30.09 1019 10 16.0934 0 0
5:55 am 05:55 Cloudy 21 -5.9 15 -9.2 78 78 W 9 15 30.12 1020 10 16.0934 0 0
6:15 am 06:15 Cloudy 21 -6 15 -9.3 78 78 WSW 6 9 30.12 1020 10 16.0934 0 0
6:35 am 06:35 Cloudy 21 -6 15 -9.3 78 78 WSW 5 7 30.12 1020 10 16.0934 0 0
6:55 am 06:55 Cloudy 21 -6 15 -9.6 76 76 WSW 6 9 30.12 1020 10 16.0934 0 0
7:15 am 07:15 Cloudy 21 -6 15 -9.4 77 77 WSW 9 15 30.15 1021 10 16.0934 0 0
7:35 am 07:35 Cloudy 21 -6.1 15 -9.6 77 77 WSW 9 15 30.15 1021 10 16.0934 0 0
7:55 am 07:55 Cloudy 21 -6.2 15 -9.6 77 77 W 10 17 30.18 1022 10 16.0934 0 0
8:15 am 08:15 Cloudy 20 -6.6 14 -10.1 76 76 WSW 12 19 30.18 1022 10 16.0934 0 0
8:35 am 08:35 Mostly Cloudy 20 -6.8 14 -10.2 77 77 W 7 11 30.21 1023 10 16.0934 0 0
8:55 am 08:55 Mostly Cloudy 20 -6.4 15 -9.7 78 78 SW 6 9 30.21 1023 10 16.0934 0 0
9:15 am 09:15 Mostly Cloudy 21 -6.2 14 -9.8 76 76 WSW 6 9 30.21 1023 10 16.0934 0 0
9:35 am 09:35 Mostly Cloudy 21 -6.1 15 -9.7 76 76 SW 7 11 30.21 1023 10 16.0934 0 0
9:55 am 09:55 Cloudy 21 -6 15 -9.6 76 76 SW 7 11 30.21 1023 10 16.0934 0 0
10:15 am 10:15 Cloudy 23 -5.1 16 -8.8 76 76 W 5 7 30.18 1022 10 16.0934 0 0
10:35 am 10:35 Mostly Cloudy 22 -5.4 16 -9 76 76 WNW 3 6 30.18 1022 10 16.0934 0 0
10:55 am 10:55 Mostly Cloudy 24 -4.6 16 -8.7 73 73 W 3 6 30.18 1022 10 16.0934 0 0
11:15 am 11:15 Mostly Cloudy 25 -4 17 -8.3 72 72 SSW 8 13 30.18 1022 10 16.0934 0 0
11:35 am 11:35 Cloudy 25 -4.1 17 -8.2 73 73 WSW 8 13 30.18 1022 10 16.0934 0 0
11:55 am 11:55 Cloudy 25 -4 17 -8.2 73 73 W 6 9 30.15 1021 10 16.0934 0 0
12:15 pm 12:15 Partly Cloudy 25 -3.7 17 -8.4 70 70 W 7 11 30.15 1021 10 16.0934 0 0
12:35 pm 12:35 Cloudy 26 -3.5 18 -8 71 71 WSW 8 13 30.15 1021 10 16.0934 0 0
12:55 pm 12:55 Cloudy 26 -3.6 18 -8 72 72 WSW 8 13 30.15 1021 10 16.0934 0 0
1:15 pm 13:15 Cloudy 26 -3.5 18 -7.8 72 72 WSW 9 15 30.15 1021 10 16.0934 0 0
1:35 pm 13:35 Cloudy 25 -3.9 17 -8.4 71 71 WSW 10 17 30.15 1021 10 16.0934 0 0
1:55 pm 13:55 Cloudy 25 -3.7 17 -8.1 72 72 WSW 12 19 30.15 1021 10 16.0934 0 0
2:15 pm 14:15 Cloudy 25 -3.7 17 -8.2 71 71 WSW 10 17 30.15 1021 10 16.0934 0 0
2:35 pm 14:35 Cloudy 26 -3.5 17 -8.1 71 71 SW 9 15 30.15 1021 10 16.0934 0 0
2:55 pm 14:55 Cloudy 26 -3.4 17 -8.2 70 70 WSW 6 9 30.15 1021 10 16.0934 0 0
3:15 pm 15:15 Cloudy 26 -3.3 17 -8.1 70 70 W 5 7 30.15 1021 10 16.0934 0 0
3:35 pm 15:35 Cloudy 26 -3.1 18 -7.8 70 70 WSW 6 9 30.15 1021 10 16.0934 0 0
3:55 pm 15:55 Cloudy 26 -3.1 17 -8.2 68 68 Calm 30.15 1021 10 16.0934 0 0
4:15 pm 16:15 Cloudy 27 -2.9 18 -7.8 69 69 SW 3 6 30.15 1021 10 16.0934 0 0
4:35 pm 16:35 Cloudy 27 -2.9 18 -7.8 69 69 SW 3 6 30.15 1021 10 16.0934 0 0
4:55 pm 16:55 Cloudy 27 -2.8 18 -7.6 70 70 SW 7 11 30.15 1021 10 16.0934 0 0
5:15 pm 17:15 Cloudy 27 -2.8 18 -7.9 68 68 Calm 30.15 1021 10 16.0934 0 0
5:35 pm 17:35 Cloudy 26 -3.2 19 -7.5 72 72 W 3 6 30.15 1021 10 16.0934 0 0
5:55 pm 17:55 Cloudy 26 -3.3 18 -7.7 72 72 Calm 30.15 1021 10 16.0934 0 0
6:15 pm 18:15 Clear 26 -3.2 18 -8 70 70 Calm 30.15 1021 10 16.0934 0 0
6:35 pm 18:35 Clear 25 -4.1 19 -7.5 77 77 N 3 6 30.15 1021 10 16.0934 0 0
6:55 pm 18:55 Clear 24 -4.6 18 -7.6 80 80 Calm 30.15 1021 10 16.0934 0 0
7:15 pm 19:15 Clear 24 -4.7 18 -7.8 79 79 Calm 30.15 1021 10 16.0934 0 0
7:35 pm 19:35 Clear 21 -6.3 18 -7.8 89 89 Calm 30.18 1022 10 16.0934 0 0
7:55 pm 19:55 Clear 20 -6.4 18 -7.7 91 91 Calm 30.18 1022 10 16.0934 0 0
8:15 pm 20:15 Clear 21 -5.9 19 -7.1 91 91 Calm 30.15 1021 10 16.0934 0 0
8:35 pm 20:35 Clear 21 -6.2 19 -7.3 92 92 Calm 30.18 1022 10 16.0934 0 0
8:55 pm 20:55 Clear with Mist and Fog 21 -6.1 19 -7.3 91 91 Calm 30.15 1021 7 11.26538 0 0
9:15 pm 21:15 Clear 21 -6.1 19 -7.5 90 90 Calm 30.15 1021 10 16.0934 0 0
9:35 pm 21:35 Clear 21 -6 19 -7.2 91 91 Calm 30.15 1021 10 16.0934 0 0
9:55 pm 21:55 Clear 22 -5.4 20 -6.7 91 91 Calm 30.15 1021 10 16.0934 0 0
10:15 pm 22:15 Partly Cloudy 23 -5 21 -6.2 91 91 ENE 3 6 30.15 1021 7 11.26538 0 0
10:35 pm 22:35 Clear 23 -4.9 20 -6.4 89 89 Calm 30.12 1020 10 16.0934 0 0
10:55 pm 22:55 Mostly Cloudy 23 -4.9 20 -6.5 89 89 Calm 30.12 1020 10 16.0934 0 0
11:15 pm 23:15 Cloudy 24 -4.6 21 -6.1 89 89 Calm 30.15 1021 10 16.0934 0 0
11:35 pm 23:35 Cloudy 25 -4 22 -5.7 88 88 Calm 30.15 1021 10 16.0934 0 0
11:55 pm 23:55 Cloudy 25 -3.8 21 -6.1 84 84 Calm 30.15 1021 10 16.0934 0 0

Powered by AerisWeather